Terug naar catalogus

OPS 4682 DEB

ActiefPO
NORAD 51093·DEBRIS·🇺🇸 United States

Gelanceerd Apr 3, 1965 vanaf Vandenberg Space Force Base

Loading…

Volgende Passages (komende 24 uur)

TLE

VersSource: Space-Track

Epoch: Sep 14, 2026, 13:52 UTC

1 51093U 65027FV  26257.57833499  .00000015  00000-0  26766-4 0  9995
2 51093  90.2380   7.1559 0038246 195.4467 164.5489 12.96645889455681

Volg OPS 4682 DEB in realtime met AllMySat

Download on the App Store